Selawik, AK

5:14 PM AKST on January 22, 2018 (GMT -0900)
Selawik

Weather History for PASK - April, 2013

Change the Weather History Date:

Tuesday, April 30, 2013

  Actual Average Record
Temperature  
Mean Temperature 12 °F -  
Max Temperature 19 °F 28 °F 50 °F (2014)
Min Temperature 5 °F 15 °F -2 °F (2001)
Degree Days  
Heating Degree Days 53    
Moisture  
Dew Point 7 °F    
Average Humidity 80    
Maximum Humidity 93    
Minimum Humidity 62    
Precipitation  
Precipitation 0.00 in - - ()
Sea Level Pressure  
Sea Level Pressure 30.17 in    
Wind  
Wind Speed 8 mph (West)    
Max Wind Speed 15 mph    
Max Gust Speed 17 mph    
Visibility 10 miles    
Events      
Averages and records for this station are not official NWS values.
T = Trace of Precipitation, MM = Missing Value Source: NWS Daily Summary

Daily Weather History Graph

Daily Weather History Graph

Search for Another Location

Airport or City:

Trip Planner

Search our weather history database for the weather conditions in past years. The results will help you decide how hot, cold, wet, or windy it might be!

Date:

Astronomy

Apr. 30, 2013 Rise Set
Actual Time 5:53 AM AKDT 11:23 PM AKDT
Civil Twilight 4:26 AM AKDT 12:53 AM AKDT
Nautical Twilight Sun does not rise Sun does not rise
Astronomical Twilight Sun does not rise Sun does not rise
Moon 4:26 AM AKDT (4/30) 10:08 AM AKDT (4/30)
Length of Visible Light 20h 26m
Length of Day
17h 29m
Waning Gibbous, 68% of the Moon is Illuminated
Apr 30
Waning Gibbous
May 2
Last Quarter
May 9
New
May 17
First Quarter
May 24
Full

Hourly Weather History & Observations

Time (AKDT) Temp. Windchill Dew Point Humidity Pressure Visibility Wind Dir Wind Speed Gust Speed Precip Events Conditions
12:16 AM 17.6 °F 10.7 °F 15.8 °F 93% 30.19 in 3.0 mi West 4.6 mph - N/A   Overcast
12:36 AM 17.6 °F 12.3 °F 15.8 °F 93% 30.18 in 3.0 mi WNW 3.5 mph - N/A   Overcast
12:56 AM 19.4 °F 14.3 °F 15.8 °F 86% 30.19 in 9.0 mi WNW 3.5 mph - N/A   Overcast
1:16 AM 17.6 °F 12.3 °F 14.0 °F 86% 30.19 in 10.0 mi West 3.5 mph - N/A   Mostly Cloudy
1:36 AM 17.6 °F 12.3 °F 14.0 °F 86% 30.19 in 10.0 mi WNW 3.5 mph - N/A   Partly Cloudy
1:56 AM 15.8 °F - 10.4 °F 79% 30.19 in 10.0 mi Calm Calm - N/A   Clear
2:16 AM 15.8 °F 10.2 °F 12.2 °F 86% 30.19 in 8.0 mi West 3.5 mph - N/A   Scattered Clouds
2:36 AM 10.4 °F -1.5 °F 6.8 °F 85% 30.20 in 10.0 mi WSW 8.1 mph - N/A   Overcast
2:56 AM 10.4 °F -1.5 °F 6.8 °F 85% 30.19 in 10.0 mi West 8.1 mph - N/A   Overcast
3:16 AM 10.4 °F -1.5 °F 6.8 °F 85% 30.20 in 10.0 mi West 8.1 mph - N/A   Overcast
3:36 AM 10.4 °F -1.5 °F 6.8 °F 85% 30.20 in 10.0 mi West 8.1 mph - N/A   Overcast
3:56 AM 10.4 °F -2.4 °F 8.6 °F 92% 30.20 in 3.0 mi WSW 9.2 mph - N/A   Mostly Cloudy
4:16 AM 8.6 °F -1.3 °F 5.0 °F 85% 30.19 in 10.0 mi West 5.8 mph - N/A   Scattered Clouds
4:36 AM 8.6 °F -1.3 °F 5.0 °F 85% 30.19 in 10.0 mi West 5.8 mph - N/A   Clear
4:56 AM 8.6 °F -3.7 °F 6.8 °F 92% 30.20 in 10.0 mi West 8.1 mph - N/A   Clear
5:16 AM 6.8 °F -5.9 °F 1.4 °F 79% 30.19 in 10.0 mi West 8.1 mph - N/A   Clear
5:36 AM 6.8 °F -4.8 °F 3.2 °F 85% 30.20 in 10.0 mi West 6.9 mph - N/A   Clear
5:56 AM 5.0 °F -8.1 °F 1.4 °F 85% 30.20 in 10.0 mi WSW 8.1 mph - N/A   Clear
6:16 AM 6.8 °F -7.8 °F 1.4 °F 79% 30.20 in 10.0 mi West 10.4 mph - N/A   Scattered Clouds
6:36 AM 6.8 °F -6.9 °F 3.2 °F 85% 30.20 in 10.0 mi WSW 9.2 mph - N/A   Mostly Cloudy
6:56 AM 6.8 °F -5.9 °F 3.2 °F 85% 30.20 in 10.0 mi WSW 8.1 mph - N/A   Mostly Cloudy
7:16 AM 8.6 °F -5.5 °F 6.8 °F 92% 30.21 in 10.0 mi West 10.4 mph - N/A   Mostly Cloudy
7:36 AM 6.8 °F -5.9 °F 3.2 °F 85% 30.21 in 10.0 mi West 8.1 mph - N/A   Partly Cloudy
7:56 AM 6.8 °F -7.8 °F 3.2 °F 85% 30.20 in 10.0 mi West 10.4 mph - N/A   Mostly Cloudy
8:16 AM 6.8 °F -8.6 °F 3.2 °F 85% 30.20 in 10.0 mi West 11.5 mph - N/A   Overcast
8:36 AM 8.6 °F -6.3 °F 3.2 °F 79% 30.20 in 10.0 mi WSW 11.5 mph - N/A   Mostly Cloudy
8:56 AM 6.8 °F -7.8 °F 3.2 °F 85% 30.20 in 10.0 mi WSW 10.4 mph - N/A   Mostly Cloudy
9:16 AM 6.8 °F -7.8 °F 3.2 °F 85% 30.21 in 10.0 mi West 10.4 mph - N/A   Mostly Cloudy
9:36 AM 6.8 °F -7.8 °F 3.2 °F 85% 30.21 in 10.0 mi WSW 10.4 mph - N/A   Scattered Clouds
9:56 AM 6.8 °F -8.6 °F 1.4 °F 79% 30.20 in 10.0 mi WSW 11.5 mph - N/A   Scattered Clouds
10:16 AM 6.8 °F -7.8 °F 3.2 °F 85% 30.20 in 10.0 mi WSW 10.4 mph - N/A   Partly Cloudy
10:36 AM 8.6 °F -4.7 °F 1.4 °F 73% 30.20 in 10.0 mi WSW 9.2 mph - N/A   Clear
10:56 AM 8.6 °F -5.5 °F 3.2 °F 79% 30.20 in 10.0 mi WSW 10.4 mph 17.3 mph N/A   Clear
11:16 AM 8.6 °F -7.0 °F 3.2 °F 79% 30.20 in 10.0 mi WSW 12.7 mph - N/A   Clear
11:36 AM 8.6 °F -7.7 °F 3.2 °F 79% 30.20 in 10.0 mi West 13.8 mph - N/A   Clear
11:56 AM 8.6 °F -7.0 °F 3.2 °F 79% 30.20 in 10.0 mi West 12.7 mph - N/A   Clear
12:16 PM 8.6 °F -7.7 °F 3.2 °F 79% 30.20 in 10.0 mi West 13.8 mph - N/A   Clear
12:36 PM 10.4 °F -6.0 °F 5.0 °F 79% 30.20 in 10.0 mi West 15.0 mph - N/A   Clear
12:56 PM 10.4 °F -4.1 °F 5.0 °F 79% 30.20 in 10.0 mi West 11.5 mph - N/A   Clear
1:16 PM 10.4 °F -5.4 °F 6.8 °F 85% 30.20 in 10.0 mi WSW 13.8 mph - N/A   Clear
1:36 PM 12.2 °F -3.1 °F 6.8 °F 79% 30.20 in 10.0 mi West 13.8 mph - N/A   Clear
1:56 PM 12.2 °F -3.1 °F 6.8 °F 79% 30.19 in 10.0 mi WSW 13.8 mph - N/A   Clear
2:16 PM 12.2 °F -3.1 °F 6.8 °F 79% 30.19 in 10.0 mi West 13.8 mph - N/A   Clear
2:36 PM 14.0 °F -0.2 °F 8.6 °F 79% 30.19 in 10.0 mi WSW 12.7 mph - N/A   Clear
2:56 PM 14.0 °F -0.2 °F 8.6 °F 79% 30.19 in 10.0 mi West 12.7 mph 16.1 mph N/A   Clear
3:16 PM 15.8 °F 2.1 °F 8.6 °F 73% 30.18 in 10.0 mi West 12.7 mph - N/A   Clear
3:36 PM 15.8 °F 2.1 °F 8.6 °F 73% 30.18 in 10.0 mi WSW 12.7 mph - N/A   Clear
3:56 PM 15.8 °F 2.7 °F 10.4 °F 79% 30.18 in 10.0 mi WSW 11.5 mph - N/A   Clear
4:16 PM 15.8 °F 0.9 °F 10.4 °F 79% 30.17 in 10.0 mi WSW 15.0 mph - N/A   Clear
4:36 PM 17.6 °F 4.3 °F 10.4 °F 73% 30.16 in 10.0 mi West 12.7 mph - N/A   Clear
4:56 PM 17.6 °F 3.2 °F 12.2 °F 79% 30.16 in 10.0 mi West 15.0 mph - N/A   Clear
5:16 PM 17.6 °F 3.2 °F 12.2 °F 79% 30.16 in 10.0 mi West 15.0 mph - N/A   Clear
5:36 PM 17.6 °F 5.0 °F 12.2 °F 79% 30.15 in 10.0 mi WSW 11.5 mph - N/A   Clear
5:56 PM 17.6 °F 5.7 °F 12.2 °F 79% 30.14 in 10.0 mi WSW 10.4 mph - N/A   Clear
6:16 PM 17.6 °F 5.7 °F 12.2 °F 79% 30.14 in 10.0 mi WSW 10.4 mph - N/A   Clear
6:36 PM 19.4 °F 7.2 °F 14.0 °F 80% 30.13 in 10.0 mi West 11.5 mph - N/A   Clear
6:56 PM 19.4 °F 8.6 °F 14.0 °F 80% 30.13 in 10.0 mi West 9.2 mph - N/A   Clear
7:16 PM 19.4 °F 8.6 °F 14.0 °F 80% 30.12 in 10.0 mi West 9.2 mph - N/A   Clear
7:36 PM 19.4 °F 9.5 °F 14.0 °F 80% 30.12 in 10.0 mi WSW 8.1 mph - N/A   Clear
7:56 PM 19.4 °F 9.5 °F 14.0 °F 80% 30.12 in 10.0 mi WSW 8.1 mph - N/A   Clear
8:16 PM 19.4 °F 9.5 °F 14.0 °F 80% 30.11 in 10.0 mi WSW 8.1 mph - N/A   Clear
8:36 PM 17.6 °F 7.3 °F 14.0 °F 86% 30.11 in 10.0 mi WSW 8.1 mph - N/A   Clear
8:56 PM 17.6 °F 8.2 °F 12.2 °F 79% 30.11 in 10.0 mi WSW 6.9 mph - N/A   Clear
9:16 PM 17.6 °F 12.3 °F 12.2 °F 79% 30.11 in 10.0 mi WNW 3.5 mph - N/A   Clear
9:36 PM 17.6 °F 8.2 °F 8.6 °F 68% 30.11 in 10.0 mi NNE 6.9 mph - N/A   Clear
9:56 PM 15.8 °F 5.1 °F 5.0 °F 62% 30.11 in 10.0 mi NE 8.1 mph - N/A   Clear
10:16 PM 14.0 °F -0.2 °F 5.0 °F 67% 30.11 in 10.0 mi NE 12.7 mph - N/A   Clear
10:36 PM 12.2 °F -1.0 °F 3.2 °F 67% 30.10 in 10.0 mi NE 10.4 mph - N/A   Clear
10:56 PM 10.4 °F -4.8 °F 1.4 °F 67% 30.11 in 10.0 mi NE 12.7 mph - N/A   Clear
11:16 PM 8.6 °F -8.3 °F -0.4 °F 67% 30.11 in 10.0 mi NE 15.0 mph - N/A   Clear
11:36 PM 8.6 °F -5.5 °F -0.4 °F 67% 30.11 in 10.0 mi NE 10.4 mph - N/A   Clear
11:56 PM 8.6 °F -4.7 °F -2.2 °F 62% 30.11 in 10.0 mi NNE 9.2 mph - N/A   Clear